Location: Kellogg
(38.0159°N, 90.0546°W)
Time: 14:33:44
(UTC+00:00)

Transit 2A - Pass Details

Date: 21 September 2024
Orbit: 590 x 960 km, 66.7° (Epoch: 07 October)

Event Time Altitude Azimuth Distance (km) Brightness Sun altitude
Rises 08:07:33 0° 332° (NNW) 3,612 9.6 -40.6°
Enters shadow 08:08:16 - 332° (NNW) 3,347 9.5 -40.5°
Reaches altitude 10° 08:10:11 10° 333° (NNW) 2,635 - -40.3°
Maximum altitude 08:16:22 82° 62° (ENE) 889 - -39.4°
Drops below altitude 10° 08:21:58 10° 150° (SSE) 2,404 - -38.5°
Sets 08:24:17 0° 151° (SSE) 3,275 - -38.2°
